Location: Albany
(35.0170°S, 117.8920°E)
Time: 17:12:13
(UTC+08:00)

Transit 2A - Pass Details

Date: 26 January 2021
Orbit: 601 x 958 km, 66.7° (Epoch: 02 March)

Event Time Altitude Azimuth Distance (km) Brightness Sun altitude
Rises 15:06:49 0° 333° (NNW) 2,931 9.4 49.9°
Reaches altitude 10° 15:08:59 10° 331° (NNW) 2,066 8.8 49.5°
Maximum altitude 15:13:40 82° 244° (WSW) 717 7.0 48.5°
Drops below altitude 10° 15:18:55 10° 155° (SSE) 2,307 8.3 47.5°
Sets 15:21:27 0° 154° (SSE) 3,301 9.0 47.0°
